OPS 4682 DEB, 38421

Orbit data source: Space-Track

OPS 4682 DEB, 38421 is space debris in LEO originally from a launch on Sat, 03 Apr 1965 UTC launched from the Air Force Western Test Range (AFWTR). Debris objects in space refer to the collection of defunct objects orbiting the Earth. Examples of debris include non-operational satellites, rocket bodies, and fragments generated from explosions, collisions, or faulty payload assembly.

Loading next visibility...
Identifier
38421, 1965-027EA
Orbit
LEO
Country
Flag of USUS
Related business
Manufacturer
Unknown
Mission
Spacecraft
Bus & Motor
Unknown
Mass
Unknown
Launch date (UTC)
1965-04-03 (61 years ago)
Launch vehicle
Unknown
Launch site
Air Force Western Test Range (AFWTR)
Object type
Payload
Rocket body
Debris
Shape & HBR
Unknown shape, 0.1 m
Radar Cross Section
Small (<0.1 m²)

Expand to show TLE details & history
Last TLE update: 3 days ago

TLE from 3 days ago
0 OPS 4682 DEB
1 38421U 65027EA  25346.80154287  .00001080  00000-0  30864-2 0  9995
2 38421  90.2583   4.5264 0035848  74.4643 286.0438 13.09784243644224
Epoch: 2025-12-12T19:14Z
TLE epoch observation values (Epoch: 2025-12-12T19:14:13.303Z)
Latitude
-0.00006°
Longitude
-5.76698°
Altitude
1,219.446 km
Speed
7.248 km/s
True Right ascension
00h 18m 06s
True Declination
0° 00' 00"
Sunlit
Object was in daylight at epoch
Visualization orbit readout
Latitude
Unknown
Longitude
Unknown
Altitude
Unknown
Speed
Unknown
Apparent Right ascension
Unknown
Apparent Declination
Unknown
Sunlit
N/A
Visualization observer readout
Local Sidereal Time
16:51:10
Azimuth
Unknown
Elevation
Unknown
Doppler factor
Unknown
Orbital elements
Apogee altitude
1,248.344 km
Perigee altitude
1,193.861 km
Semi-major axis
7,599.24 km
Eccentricity
0.00358
Inclination
90.2583°
RAAN
4.5264°
Arg. of periapsis
74.4643°
True anomaly
285.64853°
Mean anomaly
286.0438°
Eccentric anomaly
285.84621°
Mean motion
3.27633 °/min
Orbital period
109.88 mins
BSTAR
0.0030864
Loading maneuver chart data...
Computing Atmospheric mass density...
Loading historical data...
Loading historical data...
Loading historical data...
Loading historical data...
Loading historical data...
Loading historical data...
Loading historical data...

Documentation

Showing up to 5 results
|